Regional Weather Roundup
Issued by NWS Charleston, SC

Current Version | Previous Version | Graphics & Text | Print | Product List | Glossary On
Versions: 1 2 3 4 5 6 7 8 9 10 11 12 13 14 15 16 17 18 19 20 21 22 23 24 25 26 27 28 29 30 31 32 33 34 35 36 37 38 39 40 41 42 43 44 45 46 47 48 49 50
713 ASUS42 KCHS 211212 RWRCHS Regional Weather Roundup National Weather Service Charleston SC 700 AM EST SUN JAN 21 2018 NOTE: "fair" indicates few or no clouds below 12,000 feet with no significant weather and/or obstructions to visibility. Not all stations are quality controlled. Use data with caution, especially dewpoint observations. SCZ027-030-031-034>040-042>050-211300- ...Southeast South Carolina... CITY SKY/WX TMP DP RH WIND PRES REMARKS N Charleston MOCLDY 47 30 51 CALM 30.26R 6HR MIN TEMP: 46; 6HR MAX TEMP: 50; Waterfront Prk NOT AVBL Mount Pleasant FAIR 45 36 70 CALM 30.26R Johns Island FAIR 48 32 53 CALM 30.26R Pinopolis N/A 45 36 70 CALM 30.18R Moncks Corner FAIR 41 34 75 CALM 30.26R Summerville FAIR 39 34 81 CALM 30.27R Beaufort MCAS FAIR 47 33 58 CALM 30.26S 6HR MIN TEMP: 46; 6HR MAX TEMP: 50; Beaufort Arpt FAIR 46 34 61 CALM 30.26S Hilton Head Is MOCLDY 50 28 43 SW6 30.25F Walterboro FAIR 37 34 87 CALM 30.27R Allendale FAIR 37 37 100 CALM 30.25R ...Southern Midlands and Pee Dee... CITY SKY/WX TMP DP RH WIND PRES REMARKS Georgetown FAIR 41 34 75 CALM 30.26S Kingstree FAIR 32 32 100 CALM 30.26R Orangeburg FAIR 35 33 92 CALM 30.25R 6HR MIN TEMP: 34; 6HR MAX TEMP: 37; Barnwell N/A 34 34 100 CALM 30.25R Aiken FAIR 32 32 100 CALM 30.28R Manning FAIR 34 32 93 MISG 30.26S Columbia FAIR 32 30 92 CALM 30.25R 6HR MIN TEMP: 32; 6HR MAX TEMP: 37; Sumter FAIR 34 31 86 CALM 30.23R 6HR MIN TEMP: 34; 6HR MAX TEMP: 38; Florence FAIR 34 31 88 CALM 30.24R 6HR MIN TEMP: 33; 6HR MAX TEMP: 38; Myrtle Beach FAIR 41 33 73 W3 30.26S N Myrtle Beach FAIR 40 34 79 N3 30.25R 6HR MIN TEMP: 36; 6HR MAX TEMP: 44; $$ GAZ063-065-086>088-099>101-113>116-118-119-134>141-150-211300- ...Southeast Georgia... CITY SKY/WX TMP DP RH WIND PRES REMARKS Savannah Arpt MOCLDY 46 31 55 CALM 30.26F 6HR MIN TEMP: 45; 6HR MAX TEMP: 50; Hunter AAF MOCLDY 47 30 53 CALM 30.23F 6HR MIN TEMP: 47; 6HR MAX TEMP: 50; Fort Stewart MOCLDY 44 33 63 CALM 30.24S 6HR MIN TEMP: 43; 6HR MAX TEMP: 49; Statesboro FAIR 38 32 78 CALM 30.26R Sylvania FAIR 39 37 93 CALM 30.26S Claxton FAIR 41 38 91 CALM 30.26S ...CSRA, Central and far Southeast Georgia... CITY SKY/WX TMP DP RH WIND PRES REMARKS Thomson FAIR 32 31 95 CALM 30.30R Augusta-Bush FAIR 33 31 92 CALM 30.26R FOG 6HR MIN TEMP: 31; 6HR MAX TEMP: 36; Augusta-Daniel FAIR 43 38 82 CALM 30.25R Swainsboro FAIR 37 37 100 CALM 30.27R Vidalia FAIR 43 36 75 CALM 30.26R Eastman HAZE 38 32 81 CALM 30.30R VSB 1 Hazlehurst FAIR 42 33 71 CALM 30.25S Alma FAIR 38 34 85 CALM 30.26R 6HR MIN TEMP: 38; 6HR MAX TEMP: 46; Waycross FAIR 43 36 75 CALM 30.27R Jesup FAIR 43 36 75 CALM 30.27R Baxley FAIR 36 36 100 CALM 30.26R Brunswick CLOUDY 45 36 70 CALM 30.27R Saint Simons FAIR 47 38 71 CALM 30.26R 6HR MIN TEMP: 47; 6HR MAX TEMP: 50; $$ SCZ027-028-034-036>038-045-046-048>050-GAZ119-141-211300- ...Lake and Supplemental Coastal Observations... STATION/POSITION TIME TEMP WIND PRES WAVE SWELL AIR SEA DIR/SP/G HT/PER HT/PER/DIR (UTC) (F) (DEG/KT/KT) (MB) (FT/S) (FT/S/D) Winyah Bay 1045 47 290/ 3 1024.0 Lake Murray 1120 40 CALM / 1 1023.4 ACE Basin NERRS 1045 45 CALM 1024.0 Fort Pulaski 1148 49 46 320/ 4/ 5 1024.4F Sapelo Island 1100 46 40/ 2 1024.0 $$ ANZ835-935-AMZ111-154-330-350-352-354-370-450-454-472-211300- ...C-MAN and Buoy Observations... STATION/POSITION TIME TEMP WIND PRES WAVE SWELL AIR SEA DIR/SP/G HT/PER HT/PER/DIR (UTC) (F) (DEG/KT/KT) (MB) (FT/S) (FT/S/D) Buoy 41004 1150 60 70 280/ 10/ 14 1024.4R 2/ 4 2/120/10 Buoy 41008 1150 51 49 60/ 2/ 4 1024.3F 1/11 2/100/11 Folly Beach CMAN 1100 49 240/ 2/ 4 1024.8R Capers Nearshore 1108 45 48 260/ 4/ 4 1024.2R Fripp Nearshore 1108 45 46 240/ 4/ 6 1024.0R STATION/POSITION TIME TEMP WIND PRES WAVE SWELL AIR SEA DIR/SP/G HT/PER HT/PER/DIR (UTC) (F) (DEG/KT/KT) (MB) (FT/S) (FT/S/D) 5E St. Marys GA 1130 49 N/A 1/10 Frying Pan Buoy 1150 54 56 240/ 6/ 6 1023.8F 3/ 5 2/200/ 5 Buoy 41025 1200 57 69 300/ 16/ 17 1022.9 Cape Lookout NC 1100 260/ 7/ 7 1023.3R Buoy 41002 1150 68 70 230/ 10/ 12 1024.0S 4/ 6 3/280/ 6 Buoy 41010 NOT AVBL St Augustine FL 1200 51 51 300/ 4/ 5 1025.5R $$

USA.gov is the U.S. government's official web portal to all federal, state and local government web resources and services.